#timestamp,LO_Frequency,Hit,StdDev 
1549116015.4,286046997.7,N
1549116035.2,286046996.8,N
1549116055.0,286046996.7,N
1549116055.9,286046996.7,N
1549116075.8,286047002.0,N
1549116095.6,286047001.2,N
1549116115.5,286047002.5,N
1549116135.3,286046998.9,N
1549116155.1,286047000.5,N
1549116175.9,286047000.5,N
1549116195.7,286047003.7,N
1549116215.5,286047005.5,N
1549116235.4,286047008.7,N
1549116255.2,286047010.6,N
1549116275.1,286047012.0,N
1549116276.0,286047012.0,N
1549116295.8,286047006.1,N
1549116315.6,286047002.9,N
1549116335.5,286046998.0,N
1549116355.3,286046995.5,N
1549116375.2,286046986.4,N
1549116395.0,286046983.4,N
1549116395.9,286046983.4,N
1549116415.8,286046976.4,Y
1549116435.6,286046969.9,P
1549116455.5,286046973.1,N
1549116475.3,286046970.7,N
1549116495.1,286046966.0,N
1549116515.9,286046970.8,N
1549116535.7,286046968.8,N
1549116555.6,286046970.3,N
1549116575.4,286046963.1,Y
1549116595.2,286046984.3,P
1549116615.1,286046974.3,P
1549116616.0,286046974.3,P
1549116635.8,286046975.4,Y
1549116655.7,286047002.5,P
1549116675.5,286047004.0,N
1549116695.4,286047001.5,N
1549116715.2,286046993.9,N
1549116735.0,286046994.7,N
1549116735.9,286046994.7,N
1549116755.8,286046996.7,N
1549116775.6,286047000.6,N
1549116795.4,286046999.0,N
1549116815.3,286046994.0,N
1549116835.1,286046994.9,N
1549116855.9,286046997.9,N
1549116875.7,286046993.7,N
1549116895.5,286046992.4,N
1549116915.4,286046991.5,N
1549116935.2,286046988.4,N
1549116955.1,286046982.7,N
1549116956.0,286046982.7,N
1549116975.8,286046982.8,N
1549116995.6,286046989.0,N
1549117015.5,286046989.4,N
1549117035.3,286046989.8,N
1549117055.1,286046990.4,N
1549117075.9,286046994.3,N
1549117095.7,286046990.6,N
1549117115.6,286046996.5,N
1549117135.4,286047002.0,N
1549117155.2,286046999.1,N
1549117175.1,286046995.5,N
1549117176.0,286046995.5,N
1549117195.8,286046993.4,N
1549117215.7,286046999.6,N
1549117235.5,286047005.7,N
1549117255.3,286047006.6,N
1549117275.2,286047003.3,N
1549117295.9,286047000.4,N
1549117315.7,286047004.2,N
1549117335.6,286047006.6,N
1549117355.4,286046993.8,N
1549117375.3,286046985.9,N
1549117395.1,286046986.2,N
1549117396.0,286046986.2,N
1549117415.8,286046990.7,N
1549117435.7,286046994.2,N
1549117455.5,286046995.2,N
1549117475.3,286046999.6,N
1549117495.2,286046991.5,N
1549117515.0,286046990.8,N
1549117515.9,286046990.8,N
1549117535.8,286046993.1,N
1549117555.6,286046999.2,N
1549117575.4,286047000.1,N
1549117595.3,286047001.7,N
1549117615.1,286047001.0,N
1549117635.9,286047000.7,N
1549117655.7,286046999.8,N
1549117675.5,286047000.0,N
1549117695.4,286047002.1,N
1549117715.2,286046998.7,N
1549117735.0,286046998.3,N
1549117735.9,286046998.3,N
1549117755.8,286047007.6,N
1549117775.6,286047008.0,N
1549117795.5,286047020.0,Y
1549117815.3,286047027.5,P
1549117835.1,286047032.8,N
1549117855.9,286047030.6,N
1549117875.7,286047027.6,N
1549117895.5,286047025.4,N
1549117915.4,286047026.3,N
1549117935.2,286047030.5,N
1549117955.1,286047032.3,Y
1549117956.0,286047032.3,P
1549117975.8,286047007.3,N
1549117995.6,286046995.9,N
1549118015.5,286046982.1,N
1549118035.3,286046980.8,N
1549118055.2,286046979.2,N
1549118075.9,286046975.5,N
1549118095.7,286046973.3,N
1549118115.6,286046975.9,N
1549118135.4,286046978.6,N
1549118155.3,286046982.5,N
1549118175.1,286046986.9,N
1549118176.0,286046986.9,N
1549118195.8,286046997.2,N
1549118215.7,286047002.7,N
1549118235.5,286046995.2,N
1549118255.3,286047000.7,N
1549118275.2,286047008.2,N
1549118295.0,286047009.4,N
1549118295.9,286047009.4,N
1549118315.8,286047008.2,N
1549118335.6,286047012.2,N
1549118355.4,286047016.4,N
1549118375.3,286047014.9,N
1549118395.1,286047013.3,N
1549118415.9,286047011.2,N
1549118435.7,286047013.7,N
1549118455.5,286047012.2,N
1549118475.4,286047013.5,N
1549118495.2,286047009.5,N
1549118515.0,286047009.3,N
1549118515.9,286047009.3,N
1549118535.8,286047006.5,N
1549118555.6,286047010.1,N
1549118575.5,286047008.4,N
1549118595.3,286047008.9,N
1549118615.1,286047003.6,N
1549118635.9,286047003.0,N
1549118655.7,286047005.8,N
1549118675.6,286046999.8,N
1549118695.4,286047002.8,N
1549118715.2,286046991.7,N
1549118735.1,286046993.0,N
1549118736.0,286046993.0,N
1549118755.8,286046991.3,N
1549118775.6,286046985.9,N
1549118795.5,286046985.9,N
1549118815.3,286046981.8,N
1549118835.2,286046978.8,N
1549118855.9,286046970.0,N
1549118875.7,286046966.5,N
1549118895.6,286046977.1,N
1549118915.4,286046975.2,N
1549118935.3,286046964.5,N
1549118955.1,286046964.8,N
1549118956.0,286046964.8,N
1549118975.8,286046962.2,N
1549118995.7,286046965.9,N
1549119015.5,286046966.9,N
1549119035.3,286046964.9,N
1549119055.2,286046963.6,N
1549119075.0,286046963.9,N
1549119075.9,286046963.9,N
1549119095.8,286046957.3,N
1549119115.6,286046961.2,N
1549119135.4,286046956.2,N
1549119155.3,286046953.7,N
1549119175.1,286046958.9,N
1549119195.9,286046953.4,Y
1549119215.7,286046980.5,P
1549119235.5,286046984.7,P
1549119255.4,286046982.1,P
1549119275.2,286046980.3,Y
1549119295.1,286047001.9,P
1549119296.0,286047001.9,N
1549119315.8,286047008.6,N
1549119335.6,286047007.8,N
1549119355.5,286047007.2,N
1549119375.3,286047002.2,N
1549119395.2,286047008.4,N
1549119415.9,286047013.6,N
1549119435.7,286047013.3,N
1549119455.6,286047015.6,N
1549119475.4,286047014.8,N
1549119495.2,286047015.6,N
1549119515.1,286047012.4,N
1549119516.0,286047012.4,N
1549119535.8,286047000.6,N
1549119555.7,286046999.0,N
1549119605.5,286047001.5,E
